This is the latest recevied weather packets stored in our database for station/object DL7HMX-13. If no packets are shown the sender has not sent any weather packets the latest 10 day(s).
| Time | Temp. | Humidity | Pressure | Rain* | Wind** | Luminosity | Snow |
|---|---|---|---|---|---|---|---|
| 1777502421 | 6.67° C | 38% | 1027.9 hPa | 0 mm | - | 0 W/m² | - |
| 1777501823 | 7.22° C | 38% | 1028 hPa | 0 mm | - | 0 W/m² | - |
| 1777501226 | 7.22° C | 39% | 1027.8 hPa | 0 mm | - | 0 W/m² | - |
| 1777500630 | 7.78° C | 38% | 1027.7 hPa | 0 mm | - | 0 W/m² | - |
| 1777500031 | 7.22° C | 39% | 1027.5 hPa | 0 mm | - | 0 W/m² | - |
| 1777499418 | 7.78° C | 39% | 1027.3 hPa | 0 mm | - | 0 W/m² | - |
| 1777498821 | 7.78° C | 38% | 1027 hPa | 0 mm | - | 0 W/m² | - |
| 1777498223 | 8.33° C | 37% | 1026.9 hPa | 0 mm | - | 0 W/m² | - |
| 1777497625 | 8.33° C | 37% | 1026.7 hPa | 0 mm | - | 0 W/m² | - |
| 1777497028 | 8.33° C | 37% | 1026.4 hPa | 0 mm | - | 0 W/m² | - |
| 1777496430 | 8.89° C | 37% | 1026.2 hPa | 0 mm | - | 0 W/m² | - |
| 1777495816 | 8.89° C | 37% | 1026.2 hPa | 0 mm | - | 0 W/m² | - |
| 1777495219 | 8.89° C | 38% | 1026.2 hPa | 0 mm | - | 0 W/m² | - |
| 1777494621 | 9.44° C | 39% | 1026.1 hPa | 0 mm | - | 0 W/m² | - |
| 1777494025 | 9.44° C | 40% | 1025.9 hPa | 0 mm | - | 0 W/m² | - |
| 1777493426 | 9.44° C | 40% | 1025.7 hPa | 0 mm | - | 0 W/m² | - |
| 1777492829 | 10° C | 41% | 1025.6 hPa | 0 mm | - | 0 W/m² | - |
| 1777492231 | 10° C | 42% | 1025.4 hPa | 0 mm | - | 0 W/m² | - |
| 1777491618 | 10.56° C | 42% | 1025.2 hPa | 0 mm | - | 0 W/m² | - |
| 1777491021 | 10.56° C | 43% | 1025.1 hPa | 0 mm | - | 0 W/m² | - |
| 1777490424 | 11.11° C | 42% | 1025 hPa | 0 mm | - | 0 W/m² | - |
| 1777489826 | 11.11° C | 41% | 1024.7 hPa | 0 mm | - | 0 W/m² | - |
| 1777489229 | 11.67° C | 41% | 1024.5 hPa | 0 mm | - | 0 W/m² | - |
| 1777488631 | 12.22° C | 40% | 1024.4 hPa | 0 mm | - | 0 W/m² | - |
| 1777488018 | 12.22° C | 39% | 1024 hPa | 0 mm | - | 0 W/m² | - |
* Rain latest hour (hover to see other rain measurements)
** Current wind speed in m/s (hover to see current wind gust speed)